#timestamp,LO_Frequency,Hit 
1499554815.1,286047087.7,N
1499554816.0,286047087.7,N
1499554835.8,286047090.0,N
1499554855.6,286047090.0,N
1499554875.5,286047089.8,N
1499554895.3,286047090.4,N
1499554915.1,286047088.8,N
1499554935.8,286047089.0,N
1499554955.7,286047090.3,N
1499554975.5,286047090.0,N
1499554995.3,286047090.1,N
1499555015.2,286047090.2,N
1499555035.0,286047090.5,N
1499555035.9,286047090.5,N
1499555055.7,286047091.9,N
1499555075.6,286047092.0,N
1499555095.4,286047092.0,N
1499555115.2,286047092.0,N
1499555135.1,286047091.0,N
1499555136.0,286047091.0,N
1499555155.8,286047094.0,N
1499555175.6,286047093.9,N
1499555195.5,286047093.5,N
1499555215.3,286047091.3,N
1499555235.1,286047092.5,N
1499555255.9,286047094.3,N
1499555275.7,286047095.0,N
1499555295.5,286047092.6,N
1499555315.4,286047091.4,N
1499555335.2,286047093.4,N
1499555355.0,286047095.1,N
1499555355.9,286047095.1,N
1499555375.8,286047095.5,Y
1499555395.6,286047036.8,N
1499555415.4,286047036.6,N
1499555435.3,286047037.2,N
1499555455.1,286047038.0,N
1499555456.0,286047038.0,N
1499555475.8,286047037.8,N
1499555495.7,286047037.8,N
1499555515.5,286047037.3,N
1499555535.3,286047037.6,N
1499555555.1,286047037.2,N
1499555575.9,286047037.2,N
1499555595.7,286047039.2,N
1499555615.5,286047038.9,N
1499555635.4,286047039.1,N
1499555655.2,286047038.5,N
1499555675.0,286047038.3,N
1499555675.9,286047038.3,N
1499555695.8,286047040.4,N
1499555715.6,286047039.8,N
1499555735.4,286047042.7,N
1499555755.3,286047042.7,N
1499555775.1,286047040.9,N
1499555776.0,286047040.9,N
1499555795.8,286047040.7,N
1499555815.6,286047038.7,N
1499555835.5,286047038.5,N
1499555855.3,286047038.1,N
1499555875.1,286047040.6,N
1499555895.9,286047042.8,N
1499555915.7,286047041.9,N
1499555935.5,286047042.6,N
1499555955.4,286047039.8,N
1499555975.2,286047040.1,N
1499555995.0,286047040.9,N
1499555995.9,286047040.9,N
1499556015.8,286047038.1,N
1499556035.6,286047041.0,N
1499556055.4,286047042.2,N
1499556075.3,286047039.8,N
1499556095.1,286047041.9,N
1499556096.0,286047041.9,N
1499556115.8,286047040.5,N
1499556135.7,286047040.5,N
1499556155.5,286047041.0,N
1499556175.3,286047038.6,N
1499556195.1,286047040.8,N
1499556215.9,286047038.1,N
1499556235.7,286047040.1,N
1499556255.5,286047040.1,N
1499556275.4,286047040.2,N
1499556295.2,286047042.6,N
1499556315.0,286047042.7,N
1499556315.9,286047042.7,N
1499556335.8,286047039.9,N
1499556355.6,286047041.1,N
1499556375.4,286047038.2,N
1499556395.3,286047040.3,N
1499556415.1,286047042.1,N
1499556416.0,286047042.1,N
1499556435.8,286047042.0,N
1499556455.7,286047042.8,N
1499556475.5,286047042.5,N
1499556495.3,286047042.8,N
1499556515.2,286047042.1,N
1499556535.9,286047042.1,N
1499556555.7,286047042.4,N
1499556575.5,286047039.9,N
1499556595.4,286047040.6,N
1499556615.2,286047042.0,N
1499556635.0,286047044.4,N
1499556635.9,286047044.4,N
1499556655.8,286047045.4,N
1499556675.6,286047045.5,N
1499556695.4,286047045.8,N
1499556715.3,286047043.2,N
1499556735.1,286047045.3,N
1499556755.8,286047043.3,N
1499556775.7,286047044.3,N
1499556795.5,286047043.8,N
1499556815.3,286047043.8,N
1499556835.2,286047045.5,N
1499556855.9,286047045.3,N
1499556875.7,286047047.5,N
1499556895.6,286047045.2,N
1499556915.4,286047047.0,N
1499556935.2,286047047.3,N
1499556955.0,286047046.6,N
1499556955.9,286047046.6,N
1499556975.8,286047048.9,N
1499556995.6,286047050.3,N
1499557015.4,286047048.0,N
1499557035.3,286047050.3,N
1499557055.1,286047051.9,N
1499557075.8,286047051.7,N
1499557095.7,286047052.1,N
1499557115.5,286047051.6,N
1499557135.3,286047049.7,N
1499557155.2,286047050.4,N
1499557175.9,286047048.5,N
1499557195.7,286047048.3,N
1499557215.6,286047048.0,N
1499557235.4,286047050.2,N
1499557255.2,286047050.2,N
1499557275.0,286047050.5,N
1499557276.0,286047050.5,N
1499557295.8,286047049.6,N
1499557315.6,286047052.0,N
1499557335.4,286047049.8,N
1499557355.3,286047049.3,N
1499557375.1,286047051.8,N
1499557395.8,286047050.9,N
1499557415.7,286047052.7,N
1499557435.5,286047053.5,N
1499557455.5,286047053.1,N
1499557475.3,286047053.8,N
1499557495.1,286047053.5,N
1499557515.9,286047050.9,N
1499557535.7,286047051.4,N
1499557555.5,286047051.2,N
1499557575.3,286047053.8,N
1499557595.2,286047051.6,N
1499557615.0,286047052.1,N
1499557615.9,286047052.1,N
1499557635.7,286047054.9,N
1499557655.6,286047055.0,N
1499557675.4,286047055.6,N
1499557695.2,286047053.7,N
1499557715.1,286047053.8,N
1499557716.0,286047053.8,N
1499557735.8,286047052.7,N
1499557755.9,286047053.7,N
1499557775.7,286047051.4,N
1499557795.5,286047051.6,N
1499557815.4,286047051.7,N
1499557835.2,286047051.6,N
1499557855.0,286047051.4,N
1499557855.9,286047051.4,N
1499557875.8,286047053.3,N
1499557895.6,286047053.6,N
1499557915.4,286047053.8,N
1499557935.3,286047055.3,N
1499557955.1,286047055.2,N
1499557956.0,286047055.2,N
1499557975.8,286047053.3,N
1499557995.7,286047052.2,N
1499558015.5,286047053.5,N
1499558035.3,286047054.0,N
1499558055.1,286047051.0,N
1499558075.9,286047054.0,N
1499558095.7,286047053.8,N
1499558115.5,286047051.4,N
1499558135.4,286047049.7,N
1499558155.2,286047049.3,N
1499558175.0,286047051.9,N
1499558175.9,286047051.9,N
1499558195.8,286047053.8,N
1499558215.6,286047052.1,N
1499558235.4,286047051.7,N
1499558255.3,286047051.9,N
1499558275.1,286047054.0,N
1499558276.0,286047054.0,N
1499558295.8,286047051.3,N
1499558315.7,286047051.1,N
1499558335.5,286047053.6,N
1499558355.3,286047051.0,N
1499558375.2,286047053.8,N
1499558395.9,286047054.4,N
